Year,Month,Day,Hour,Minute,Value (Times are PST for temperature in C)
2014,03,26,00,00,6.30
2014,03,26,00,01,6.30
2014,03,26,00,02,6.40
2014,03,26,00,03,6.40
2014,03,26,00,04,6.40
2014,03,26,00,05,6.40
2014,03,26,00,06,6.40
2014,03,26,00,07,6.40
2014,03,26,00,08,6.40
2014,03,26,00,09,6.50
2014,03,26,00,10,6.50
2014,03,26,00,11,6.40
2014,03,26,00,12,6.40
2014,03,26,00,13,6.40
2014,03,26,00,14,6.40
2014,03,26,00,15,6.40
2014,03,26,00,16,6.40
2014,03,26,00,17,6.40
2014,03,26,00,18,6.40
2014,03,26,00,19,6.40
2014,03,26,00,20,6.40
2014,03,26,00,21,6.40
2014,03,26,00,22,6.40
2014,03,26,00,23,6.40
2014,03,26,00,24,6.50
2014,03,26,00,25,6.50
2014,03,26,00,26,6.50
2014,03,26,00,27,6.40
2014,03,26,00,28,6.40
2014,03,26,00,29,6.40
2014,03,26,00,30,6.40
2014,03,26,00,31,6.40
2014,03,26,00,32,6.40
2014,03,26,00,33,6.40
2014,03,26,00,34,6.40
2014,03,26,00,35,6.40
2014,03,26,00,36,6.30
2014,03,26,00,37,6.30
2014,03,26,00,38,6.30
2014,03,26,00,39,6.30
2014,03,26,00,40,6.20
2014,03,26,00,41,6.20
2014,03,26,00,42,6.20
2014,03,26,00,43,6.20
2014,03,26,00,44,6.20
2014,03,26,00,45,6.20
2014,03,26,00,46,6.10
2014,03,26,00,47,6.10
2014,03,26,00,48,6.10
2014,03,26,00,49,6.10
2014,03,26,00,50,6.10
2014,03,26,00,51,6.00
2014,03,26,00,52,6.00
2014,03,26,00,53,6.00
2014,03,26,00,54,6.00
2014,03,26,00,55,5.90
2014,03,26,00,56,5.90
2014,03,26,00,57,5.90
2014,03,26,00,58,5.90
2014,03,26,00,59,5.90
2014,03,26,01,00,5.90
2014,03,26,01,01,5.90
2014,03,26,01,02,5.90
2014,03,26,01,03,5.90
2014,03,26,01,04,5.90
2014,03,26,01,05,5.90
2014,03,26,01,06,5.90
2014,03,26,01,07,5.90
2014,03,26,01,08,5.90
2014,03,26,01,09,5.90
2014,03,26,01,10,5.90
2014,03,26,01,11,5.90
2014,03,26,01,12,5.90
2014,03,26,01,13,5.90
2014,03,26,01,14,5.90
2014,03,26,01,15,5.90
2014,03,26,01,16,5.90
2014,03,26,01,17,5.90
2014,03,26,01,18,5.90
2014,03,26,01,19,5.90
2014,03,26,01,20,5.90
2014,03,26,01,21,5.90
2014,03,26,01,22,5.90
2014,03,26,01,23,5.90
2014,03,26,01,24,5.90
2014,03,26,01,25,5.90
2014,03,26,01,26,5.90
2014,03,26,01,27,5.90
2014,03,26,01,28,5.90
2014,03,26,01,29,5.90
2014,03,26,01,30,5.90
2014,03,26,01,31,5.90
2014,03,26,01,32,5.90
2014,03,26,01,33,5.90
2014,03,26,01,34,5.90
2014,03,26,01,35,5.90
2014,03,26,01,36,5.90
2014,03,26,01,37,5.90
2014,03,26,01,38,5.90
2014,03,26,01,39,5.90
2014,03,26,01,40,6.00
2014,03,26,01,41,6.00
2014,03,26,01,42,6.00
2014,03,26,01,43,5.90
2014,03,26,01,44,5.90
2014,03,26,01,45,5.90
2014,03,26,01,46,5.90
2014,03,26,01,47,5.90
2014,03,26,01,48,5.90
2014,03,26,01,49,5.90
2014,03,26,01,50,5.90
2014,03,26,01,51,5.90
2014,03,26,01,52,5.90
2014,03,26,01,53,5.90
2014,03,26,01,54,5.90
2014,03,26,01,55,5.90
2014,03,26,01,56,5.90
2014,03,26,01,57,5.90
2014,03,26,01,58,5.90
2014,03,26,01,59,5.90
2014,03,26,02,00,5.90
2014,03,26,02,01,5.90
2014,03,26,02,02,5.90
2014,03,26,02,03,5.90
2014,03,26,02,04,5.90
2014,03,26,02,05,5.90
2014,03,26,02,06,5.90
2014,03,26,02,07,5.90
2014,03,26,02,08,5.90
2014,03,26,02,09,5.80
2014,03,26,02,10,5.80
2014,03,26,02,11,5.80
2014,03,26,02,12,5.80
2014,03,26,02,13,5.80
2014,03,26,02,14,5.80
2014,03,26,02,15,5.80
2014,03,26,02,16,5.80
2014,03,26,02,17,5.80
2014,03,26,02,18,5.80
2014,03,26,02,19,5.80
2014,03,26,02,20,5.80
2014,03,26,02,21,5.80
2014,03,26,02,22,5.80
2014,03,26,02,23,5.80
2014,03,26,02,24,5.80
2014,03,26,02,25,5.80
2014,03,26,02,26,5.80
2014,03,26,02,27,5.90
2014,03,26,02,28,5.90
2014,03,26,02,29,5.90
2014,03,26,02,30,5.90
2014,03,26,02,31,5.90
2014,03,26,02,32,5.90
2014,03,26,02,33,5.90
2014,03,26,02,34,5.90
2014,03,26,02,35,5.90
2014,03,26,02,36,5.90
2014,03,26,02,37,5.90
2014,03,26,02,38,5.90
2014,03,26,02,39,5.90
2014,03,26,02,40,5.90
2014,03,26,02,41,5.90
2014,03,26,02,42,5.90
2014,03,26,02,43,5.90
2014,03,26,02,44,5.90
2014,03,26,02,45,5.90
2014,03,26,02,46,5.90
2014,03,26,02,47,5.90
2014,03,26,02,48,5.90
2014,03,26,02,49,5.90
2014,03,26,02,50,5.90
2014,03,26,02,51,5.90
2014,03,26,02,52,5.90
2014,03,26,02,53,5.90
2014,03,26,02,54,5.90
2014,03,26,02,55,5.90
2014,03,26,02,56,5.90
2014,03,26,02,57,5.90
2014,03,26,02,58,5.80
2014,03,26,02,59,5.80
2014,03,26,03,00,5.80
2014,03,26,03,01,5.80
2014,03,26,03,02,5.80
2014,03,26,03,03,5.80
2014,03,26,03,04,5.80
2014,03,26,03,05,5.80
2014,03,26,03,06,5.80
2014,03,26,03,07,5.80
2014,03,26,03,08,5.70
2014,03,26,03,09,5.70
2014,03,26,03,10,5.70
2014,03,26,03,11,5.70
2014,03,26,03,12,5.70
2014,03,26,03,13,5.70
2014,03,26,03,14,5.70
2014,03,26,03,15,5.70
2014,03,26,03,16,5.70
2014,03,26,03,17,5.60
2014,03,26,03,18,5.60
2014,03,26,03,19,5.60
2014,03,26,03,20,5.60
2014,03,26,03,21,5.60
2014,03,26,03,22,5.60
2014,03,26,03,23,5.60
2014,03,26,03,24,5.50
2014,03,26,03,25,5.50
2014,03,26,03,26,5.50
2014,03,26,03,27,5.50
2014,03,26,03,28,5.40
2014,03,26,03,29,5.40
2014,03,26,03,30,5.40
2014,03,26,03,31,5.40
2014,03,26,03,32,5.40
2014,03,26,03,33,5.40
2014,03,26,03,34,5.30
2014,03,26,03,35,5.30
2014,03,26,03,36,5.30
2014,03,26,03,37,5.30
2014,03,26,03,38,5.30
2014,03,26,03,39,5.20
2014,03,26,03,40,5.20
2014,03,26,03,41,5.20
2014,03,26,03,42,5.20
2014,03,26,03,43,5.20
2014,03,26,03,44,5.20
2014,03,26,03,45,5.20
2014,03,26,03,46,5.20
2014,03,26,03,47,5.20
2014,03,26,03,48,5.20
2014,03,26,03,49,5.20
2014,03,26,03,50,5.20
2014,03,26,03,51,5.10
2014,03,26,03,52,5.10
2014,03,26,03,53,5.10
2014,03,26,03,54,5.10
2014,03,26,03,55,5.10
2014,03,26,03,56,5.00
2014,03,26,03,57,5.00
2014,03,26,03,58,5.00
2014,03,26,03,59,5.00
2014,03,26,04,00,5.00
2014,03,26,04,01,5.00
2014,03,26,04,02,4.90
2014,03,26,04,03,4.90
2014,03,26,04,04,4.90
2014,03,26,04,05,4.90
2014,03,26,04,06,4.90
2014,03,26,04,07,4.90
2014,03,26,04,08,4.90
2014,03,26,04,09,4.90
2014,03,26,04,10,4.90
2014,03,26,04,11,4.90
2014,03,26,04,12,4.90
2014,03,26,04,13,4.90
2014,03,26,04,14,4.90
2014,03,26,04,15,4.90
2014,03,26,04,16,4.90
2014,03,26,04,17,4.90
2014,03,26,04,18,4.90
2014,03,26,04,19,4.90
2014,03,26,04,20,4.90
2014,03,26,04,21,4.90
2014,03,26,04,22,4.90
2014,03,26,04,23,4.90
2014,03,26,04,24,4.90
2014,03,26,04,25,4.90
2014,03,26,04,26,4.90
2014,03,26,04,27,4.90
2014,03,26,04,28,4.90
2014,03,26,04,29,4.90
2014,03,26,04,30,5.00
2014,03,26,04,31,5.00
2014,03,26,04,32,5.10
2014,03,26,04,33,5.10
2014,03,26,04,34,5.20
2014,03,26,04,35,5.20
2014,03,26,04,36,5.20
2014,03,26,04,37,5.30
2014,03,26,04,38,5.30
2014,03,26,04,39,5.30
2014,03,26,04,40,5.30
2014,03,26,04,41,5.40
2014,03,26,04,42,5.40
2014,03,26,04,43,5.40
2014,03,26,04,44,5.40
2014,03,26,04,45,5.40
2014,03,26,04,46,5.40
2014,03,26,04,47,5.40
2014,03,26,04,48,5.50
2014,03,26,04,49,5.50
2014,03,26,04,50,5.50
2014,03,26,04,51,5.50
2014,03,26,04,52,5.50
2014,03,26,04,53,5.50
2014,03,26,04,54,5.50
2014,03,26,04,55,5.50
2014,03,26,04,56,5.50
2014,03,26,04,57,5.50
2014,03,26,04,58,5.50
2014,03,26,04,59,5.50
2014,03,26,05,00,5.50
2014,03,26,05,01,5.50
2014,03,26,05,02,5.50
2014,03,26,05,03,5.50
2014,03,26,05,04,5.50
2014,03,26,05,05,5.50
2014,03,26,05,06,5.40
2014,03,26,05,07,5.50
2014,03,26,05,08,5.50
2014,03,26,05,09,5.40
2014,03,26,05,10,5.40
2014,03,26,05,11,5.40
2014,03,26,05,12,5.40
2014,03,26,05,13,5.40
2014,03,26,05,14,5.40
2014,03,26,05,15,5.40
2014,03,26,05,16,5.40
2014,03,26,05,17,5.40
2014,03,26,05,18,5.30
2014,03,26,05,19,5.30
2014,03,26,05,20,5.30
2014,03,26,05,21,5.30
2014,03,26,05,22,5.30
2014,03,26,05,23,5.20
2014,03,26,05,24,5.20
2014,03,26,05,25,5.20
2014,03,26,05,26,5.20
2014,03,26,05,27,5.20
2014,03,26,05,28,5.20
2014,03,26,05,29,5.20
2014,03,26,05,30,5.20
2014,03,26,05,31,5.20
2014,03,26,05,32,5.20
2014,03,26,05,33,5.20
2014,03,26,05,34,5.20
2014,03,26,05,35,5.20
2014,03,26,05,36,5.20
2014,03,26,05,37,5.20
2014,03,26,05,38,5.20
2014,03,26,05,39,5.10
2014,03,26,05,40,5.10
2014,03,26,05,41,5.10
2014,03,26,05,42,5.10
2014,03,26,05,43,5.10
2014,03,26,05,44,5.00
2014,03,26,05,45,5.00
2014,03,26,05,46,5.00
2014,03,26,05,47,5.00
2014,03,26,05,48,4.90
2014,03,26,05,49,4.90
2014,03,26,05,50,4.90
2014,03,26,05,51,4.80
2014,03,26,05,52,4.80
2014,03,26,05,53,4.80
2014,03,26,05,54,4.80
2014,03,26,05,55,4.80
2014,03,26,05,56,4.70
2014,03,26,05,57,4.70
2014,03,26,05,58,4.70
2014,03,26,05,59,4.70
2014,03,26,06,00,4.70
2014,03,26,06,01,4.60
2014,03,26,06,02,4.60
2014,03,26,06,03,4.60
2014,03,26,06,04,4.60
2014,03,26,06,05,4.50
2014,03,26,06,06,4.50
2014,03,26,06,07,4.50
2014,03,26,06,08,4.40
2014,03,26,06,09,4.40
2014,03,26,06,10,4.40
2014,03,26,06,11,4.30
2014,03,26,06,12,4.30
2014,03,26,06,13,4.30
2014,03,26,06,14,4.20
2014,03,26,06,15,4.20
2014,03,26,06,16,4.20
2014,03,26,06,17,4.20
2014,03,26,06,18,4.10
2014,03,26,06,19,4.10
2014,03,26,06,20,4.10
2014,03,26,06,21,4.10
2014,03,26,06,22,4.00
2014,03,26,06,23,4.00
2014,03,26,06,24,3.90
2014,03,26,06,25,3.90
2014,03,26,06,26,3.90
2014,03,26,06,27,3.90
2014,03,26,06,28,3.80
2014,03,26,06,29,3.80
2014,03,26,06,30,3.80
2014,03,26,06,31,3.80
2014,03,26,06,32,3.80
2014,03,26,06,33,3.80
2014,03,26,06,34,3.80
2014,03,26,06,35,3.80
2014,03,26,06,36,3.80
2014,03,26,06,37,3.80
2014,03,26,06,38,3.70
2014,03,26,06,39,3.70
2014,03,26,06,40,3.70
2014,03,26,06,41,3.70
2014,03,26,06,42,3.70
2014,03,26,06,43,3.70
2014,03,26,06,44,3.60
2014,03,26,06,45,3.60
2014,03,26,06,46,3.60
2014,03,26,06,47,3.60
2014,03,26,06,48,3.50
2014,03,26,06,49,3.50
2014,03,26,06,50,3.50
2014,03,26,06,51,3.40
2014,03,26,06,52,3.40
2014,03,26,06,53,3.40
2014,03,26,06,54,3.40
2014,03,26,06,55,3.30
2014,03,26,06,56,3.30
2014,03,26,06,57,3.30
2014,03,26,06,58,3.30
2014,03,26,06,59,3.20
2014,03,26,07,00,3.20
2014,03,26,07,01,3.20
2014,03,26,07,02,3.20
2014,03,26,07,03,3.20
2014,03,26,07,04,3.10
2014,03,26,07,05,3.10
2014,03,26,07,06,3.10
2014,03,26,07,07,3.10
2014,03,26,07,08,3.10
2014,03,26,07,09,3.00
2014,03,26,07,10,3.00
2014,03,26,07,11,3.00
2014,03,26,07,12,2.90
2014,03,26,07,13,2.90
2014,03,26,07,14,2.90
2014,03,26,07,15,2.90
2014,03,26,07,16,2.90
2014,03,26,07,17,2.90
2014,03,26,07,18,2.80
2014,03,26,07,19,2.80
2014,03,26,07,20,2.80
2014,03,26,07,21,2.80
2014,03,26,07,22,2.80
2014,03,26,07,23,2.80
2014,03,26,07,24,2.70
2014,03,26,07,25,2.70
2014,03,26,07,26,2.80
2014,03,26,07,27,2.80
2014,03,26,07,28,2.80
2014,03,26,07,29,2.80
2014,03,26,07,30,2.80
2014,03,26,07,31,2.80
2014,03,26,07,32,2.80
2014,03,26,07,33,2.80
2014,03,26,07,34,2.80
2014,03,26,07,35,2.80
2014,03,26,07,36,2.80
2014,03,26,07,37,2.80
2014,03,26,07,38,2.80
2014,03,26,07,39,2.80
2014,03,26,07,40,2.80
2014,03,26,07,41,2.80
2014,03,26,07,42,2.80
2014,03,26,07,43,2.80
2014,03,26,07,44,2.80
2014,03,26,07,45,2.80
2014,03,26,07,46,2.80
2014,03,26,07,47,2.80
2014,03,26,07,48,2.80
2014,03,26,07,49,2.80
2014,03,26,07,50,2.80
2014,03,26,07,51,2.80
2014,03,26,07,52,2.80
2014,03,26,07,53,2.80
2014,03,26,07,54,2.80
2014,03,26,07,55,2.80
2014,03,26,07,56,2.80
2014,03,26,07,57,2.80
2014,03,26,07,58,2.80
2014,03,26,07,59,2.80
2014,03,26,08,00,2.90
2014,03,26,08,01,2.90
2014,03,26,08,02,2.90
2014,03,26,08,03,2.90
2014,03,26,08,04,2.90
2014,03,26,08,05,2.90
2014,03,26,08,06,2.90
2014,03,26,08,07,3.00
2014,03,26,08,08,3.00
2014,03,26,08,09,3.00
2014,03,26,08,10,3.00
2014,03,26,08,11,3.00
2014,03,26,08,12,3.10
2014,03,26,08,13,3.10
2014,03,26,08,14,3.10
2014,03,26,08,15,3.10
2014,03,26,08,16,3.10
2014,03,26,08,17,3.10
2014,03,26,08,18,3.10
2014,03,26,08,19,3.10
2014,03,26,08,20,3.20
2014,03,26,08,21,3.20
2014,03,26,08,22,3.20
2014,03,26,08,23,3.20
2014,03,26,08,24,3.20
2014,03,26,08,25,3.20
2014,03,26,08,26,3.30
2014,03,26,08,27,3.30
2014,03,26,08,28,3.30
2014,03,26,08,29,3.40
2014,03,26,08,30,3.40
2014,03,26,08,31,3.40
2014,03,26,08,32,3.50
2014,03,26,08,33,3.50
2014,03,26,08,34,3.60
2014,03,26,08,35,3.60
2014,03,26,08,36,3.60
2014,03,26,08,37,3.60
2014,03,26,08,38,3.70
2014,03,26,08,39,3.70
2014,03,26,08,40,3.70
2014,03,26,08,41,3.80
2014,03,26,08,42,3.80
2014,03,26,08,43,3.90
2014,03,26,08,44,3.90
2014,03,26,08,45,3.90
2014,03,26,08,46,4.00
2014,03,26,08,47,4.10
2014,03,26,08,48,4.10
2014,03,26,08,49,4.20
2014,03,26,08,50,4.20
2014,03,26,08,51,4.30
2014,03,26,08,52,4.30
2014,03,26,08,53,4.40
2014,03,26,08,54,4.50
2014,03,26,08,55,4.50
2014,03,26,08,56,4.60
2014,03,26,08,57,4.70
2014,03,26,08,58,4.70
2014,03,26,08,59,4.80
2014,03,26,09,00,4.80
2014,03,26,09,01,4.90
2014,03,26,09,02,5.00
2014,03,26,09,03,5.00
2014,03,26,09,04,5.10
2014,03,26,09,05,5.20
2014,03,26,09,06,5.20
2014,03,26,09,07,5.20
2014,03,26,09,08,5.30
2014,03,26,09,09,5.30
2014,03,26,09,10,5.40
2014,03,26,09,11,5.50
2014,03,26,09,12,5.60
2014,03,26,09,13,5.60
2014,03,26,09,14,5.70
2014,03,26,09,15,5.70
2014,03,26,09,16,5.80
2014,03,26,09,17,5.80
2014,03,26,09,18,5.90
2014,03,26,09,19,5.90
2014,03,26,09,20,6.00
2014,03,26,09,21,6.10
2014,03,26,09,22,6.10
2014,03,26,09,23,6.20
2014,03,26,09,24,6.20
2014,03,26,09,25,6.30
2014,03,26,09,26,6.30
2014,03,26,09,27,6.40
2014,03,26,09,28,6.50
2014,03,26,09,29,6.50
2014,03,26,09,30,6.60
2014,03,26,09,31,6.70
2014,03,26,09,32,6.80
2014,03,26,09,33,6.80
2014,03,26,09,34,6.90
2014,03,26,09,35,6.90
2014,03,26,09,36,7.00
2014,03,26,09,37,7.10
2014,03,26,09,38,7.10
2014,03,26,09,39,7.10
2014,03,26,09,40,7.20
2014,03,26,09,41,7.30
2014,03,26,09,42,7.40
2014,03,26,09,43,7.50
2014,03,26,09,44,7.60
2014,03,26,09,45,7.70
2014,03,26,09,46,7.80
2014,03,26,09,47,7.90
2014,03,26,09,48,8.00
2014,03,26,09,49,8.10
2014,03,26,09,50,8.30
2014,03,26,09,51,8.30
2014,03,26,09,52,8.40
2014,03,26,09,53,8.40
2014,03,26,09,54,8.50
2014,03,26,09,55,8.50
2014,03,26,09,56,8.50
2014,03,26,09,57,8.50
2014,03,26,09,58,8.60
2014,03,26,09,59,8.60
2014,03,26,10,00,8.60
2014,03,26,10,01,8.60
2014,03,26,10,02,8.60
2014,03,26,10,03,8.60
2014,03,26,10,04,8.60
2014,03,26,10,05,8.60
2014,03,26,10,06,8.60
2014,03,26,10,07,8.60
2014,03,26,10,08,8.60
2014,03,26,10,09,8.70
2014,03,26,10,10,8.70
2014,03,26,10,11,8.80
2014,03,26,10,12,8.90
2014,03,26,10,13,8.90
2014,03,26,10,14,9.00
2014,03,26,10,15,9.10
2014,03,26,10,16,9.20
2014,03,26,10,17,9.30
2014,03,26,10,18,9.40
2014,03,26,10,19,9.50
2014,03,26,10,20,9.50
2014,03,26,10,21,9.60
2014,03,26,10,22,9.70
2014,03,26,10,23,9.70
2014,03,26,10,24,9.70
2014,03,26,10,25,9.80
2014,03,26,10,26,9.90
2014,03,26,10,27,10.00
2014,03,26,10,28,10.00
2014,03,26,10,29,10.10
2014,03,26,10,30,10.20
2014,03,26,10,31,10.30
2014,03,26,10,32,10.40
2014,03,26,10,33,10.40
2014,03,26,10,34,10.50
2014,03,26,10,35,10.60
2014,03,26,10,36,10.70
2014,03,26,10,37,10.70
2014,03,26,10,38,10.80
2014,03,26,10,39,10.80
2014,03,26,10,40,10.90
2014,03,26,10,41,10.90
2014,03,26,10,42,10.90
2014,03,26,10,43,10.90
2014,03,26,10,44,11.00
2014,03,26,10,45,11.00
2014,03,26,10,46,11.00
2014,03,26,10,47,11.10
2014,03,26,10,48,11.20
2014,03,26,10,49,11.20
2014,03,26,10,50,11.20
2014,03,26,10,51,11.30
2014,03,26,10,52,11.40
2014,03,26,10,53,11.40
2014,03,26,10,54,11.40
2014,03,26,10,55,11.40
2014,03,26,10,56,11.40
2014,03,26,10,57,11.40
2014,03,26,10,58,11.40
2014,03,26,10,59,11.40
2014,03,26,11,00,11.40
2014,03,26,11,01,11.40
2014,03,26,11,02,11.30
2014,03,26,11,03,11.30
2014,03,26,11,04,11.40
2014,03,26,11,05,11.40
2014,03,26,11,06,11.40
2014,03,26,11,07,11.50
2014,03,26,11,08,11.50
2014,03,26,11,09,11.60
2014,03,26,11,10,11.60
2014,03,26,11,11,11.60
2014,03,26,11,12,11.70
2014,03,26,11,13,11.70
2014,03,26,11,14,11.80
2014,03,26,11,15,11.80
2014,03,26,11,16,11.80
2014,03,26,11,17,11.90
2014,03,26,11,18,11.90
2014,03,26,11,19,11.90
2014,03,26,11,20,11.90
2014,03,26,11,21,12.00
2014,03,26,11,22,12.00
2014,03,26,11,23,12.10
2014,03,26,11,24,12.10
2014,03,26,11,25,12.20
2014,03,26,11,26,12.20
2014,03,26,11,27,12.20
2014,03,26,11,28,12.20
2014,03,26,11,29,12.10
2014,03,26,11,30,12.00
2014,03,26,11,31,11.80
2014,03,26,11,32,11.70
2014,03,26,11,33,11.50
2014,03,26,11,34,11.40
2014,03,26,11,35,11.20
2014,03,26,11,36,11.10
2014,03,26,11,37,11.00
2014,03,26,11,38,10.80
2014,03,26,11,39,10.70
2014,03,26,11,40,10.60
2014,03,26,11,41,10.50
2014,03,26,11,42,10.50
2014,03,26,11,43,10.40
2014,03,26,11,44,10.30
2014,03,26,11,45,10.30
2014,03,26,11,46,10.30
2014,03,26,11,47,10.30
2014,03,26,11,48,10.30
2014,03,26,11,49,10.30
2014,03,26,11,50,10.30
2014,03,26,11,51,10.30
2014,03,26,11,52,10.30
2014,03,26,11,53,10.30
2014,03,26,11,54,10.30
2014,03,26,11,55,10.30
2014,03,26,11,56,10.30
2014,03,26,11,57,10.20
2014,03,26,11,58,10.20
2014,03,26,11,59,10.20
2014,03,26,12,00,10.20
2014,03,26,12,01,10.20
2014,03,26,12,02,10.10
2014,03,26,12,03,10.00
2014,03,26,12,04,10.00
2014,03,26,12,05,9.90
2014,03,26,12,06,9.90
2014,03,26,12,07,9.80
2014,03,26,12,08,9.80
2014,03,26,12,09,9.80
2014,03,26,12,10,9.90
2014,03,26,12,11,9.90
2014,03,26,12,12,9.90
2014,03,26,12,13,9.90
2014,03,26,12,14,9.90
2014,03,26,12,15,10.00
2014,03,26,12,16,10.00
2014,03,26,12,17,10.00
2014,03,26,12,18,10.10
2014,03,26,12,19,10.10
2014,03,26,12,20,10.10
2014,03,26,12,21,10.10
2014,03,26,12,22,10.10
2014,03,26,12,23,10.10
2014,03,26,12,24,10.10
2014,03,26,12,25,10.10
2014,03,26,12,26,10.10
2014,03,26,12,27,10.10
2014,03,26,12,28,10.20
2014,03,26,12,29,10.20
2014,03,26,12,30,10.20
2014,03,26,12,31,10.30
2014,03,26,12,32,10.40
2014,03,26,12,33,10.40
2014,03,26,12,34,10.40
2014,03,26,12,35,10.50
2014,03,26,12,36,10.50
2014,03,26,12,37,10.50
2014,03,26,12,38,10.50
2014,03,26,12,39,10.60
2014,03,26,12,40,10.60
2014,03,26,12,41,10.60
2014,03,26,12,42,10.70
2014,03,26,12,43,10.70
2014,03,26,12,44,10.70
2014,03,26,12,45,10.80
2014,03,26,12,46,10.80
2014,03,26,12,47,10.80
2014,03,26,12,48,10.80
2014,03,26,12,49,10.80
2014,03,26,12,50,10.90
2014,03,26,12,51,10.90
2014,03,26,12,52,11.00
2014,03,26,12,53,11.10
2014,03,26,12,54,11.10
2014,03,26,12,55,11.20
2014,03,26,12,56,11.20
2014,03,26,12,57,11.20
2014,03,26,12,58,11.20
2014,03,26,12,59,11.30
2014,03,26,13,00,11.30
2014,03,26,13,01,11.30
2014,03,26,13,02,11.30
2014,03,26,13,03,11.30
2014,03,26,13,04,11.30
2014,03,26,13,05,11.30
2014,03,26,13,06,11.30
2014,03,26,13,07,11.30
2014,03,26,13,08,11.40
2014,03,26,13,09,11.40
2014,03,26,13,10,11.50
2014,03,26,13,11,11.50
2014,03,26,13,12,11.60
2014,03,26,13,13,11.60
2014,03,26,13,14,11.60
2014,03,26,13,15,11.60
2014,03,26,13,16,11.60
2014,03,26,13,17,11.60
2014,03,26,13,18,11.60
2014,03,26,13,19,11.60
2014,03,26,13,20,11.70
2014,03,26,13,21,11.70
2014,03,26,13,22,11.70
2014,03,26,13,23,11.70
2014,03,26,13,24,11.70
2014,03,26,13,25,11.70
2014,03,26,13,26,11.70
2014,03,26,13,27,11.70
2014,03,26,13,28,11.70
2014,03,26,13,29,11.70
2014,03,26,13,30,11.70
2014,03,26,13,31,11.60
2014,03,26,13,32,11.60
2014,03,26,13,33,11.60
2014,03,26,13,34,11.70
2014,03,26,13,35,11.70
2014,03,26,13,36,11.80
2014,03,26,13,37,11.90
2014,03,26,13,38,11.90
2014,03,26,13,39,12.00
2014,03,26,13,40,12.10
2014,03,26,13,41,12.20
2014,03,26,13,42,12.30
2014,03,26,13,43,12.40
2014,03,26,13,44,12.40
2014,03,26,13,45,12.40
2014,03,26,13,46,12.50
2014,03,26,13,47,12.50
2014,03,26,13,48,12.50
2014,03,26,13,49,12.50
2014,03,26,13,50,12.50
2014,03,26,13,51,12.40
2014,03,26,13,52,12.40
2014,03,26,13,53,12.50
2014,03,26,13,54,12.50
2014,03,26,13,55,12.50
2014,03,26,13,56,12.60
2014,03,26,13,57,12.60
2014,03,26,13,58,12.60
2014,03,26,13,59,12.70
2014,03,26,14,00,12.70
2014,03,26,14,01,12.70
2014,03,26,14,02,12.70
2014,03,26,14,03,12.80
2014,03,26,14,04,12.80
2014,03,26,14,05,12.90
2014,03,26,14,06,12.90
2014,03,26,14,07,12.90
2014,03,26,14,08,12.90
2014,03,26,14,09,12.90
2014,03,26,14,10,12.90
2014,03,26,14,11,12.90
2014,03,26,14,12,12.90
2014,03,26,14,13,12.90
2014,03,26,14,14,12.80
2014,03,26,14,15,12.70
2014,03,26,14,16,12.70
2014,03,26,14,17,12.70
2014,03,26,14,18,12.70
2014,03,26,14,19,12.70
2014,03,26,14,20,12.70
2014,03,26,14,21,12.60
2014,03,26,14,22,12.50
2014,03,26,14,23,12.50
2014,03,26,14,24,12.40
2014,03,26,14,25,12.30
2014,03,26,14,26,12.20
2014,03,26,14,27,12.20
2014,03,26,14,28,12.20
2014,03,26,14,29,12.20
2014,03,26,14,30,12.10
2014,03,26,14,31,12.10
2014,03,26,14,32,12.10
2014,03,26,14,33,12.10
2014,03,26,14,34,12.10
2014,03,26,14,35,12.10
2014,03,26,14,36,12.00
2014,03,26,14,37,12.00
2014,03,26,14,38,11.90
2014,03,26,14,39,11.80
2014,03,26,14,40,11.70
2014,03,26,14,41,11.70
2014,03,26,14,42,11.70
2014,03,26,14,43,11.70
2014,03,26,14,44,11.70
2014,03,26,14,45,11.70
2014,03,26,14,46,11.80
2014,03,26,14,47,11.80
2014,03,26,14,48,11.80
2014,03,26,14,49,11.90
2014,03,26,14,50,11.90
2014,03,26,14,51,12.00
2014,03,26,14,52,12.10
2014,03,26,14,53,12.10
2014,03,26,14,54,12.10
2014,03,26,14,55,12.20
2014,03,26,14,56,12.20
2014,03,26,14,57,12.20
2014,03,26,14,58,12.10
2014,03,26,14,59,12.10
2014,03,26,15,00,12.10
2014,03,26,15,01,12.00
2014,03,26,15,02,12.10
2014,03,26,15,03,12.10
2014,03,26,15,04,12.10
2014,03,26,15,05,12.10
2014,03,26,15,06,12.10
2014,03,26,15,07,12.10
2014,03,26,15,08,12.10
2014,03,26,15,09,12.10
2014,03,26,15,10,12.10
2014,03,26,15,11,12.00
2014,03,26,15,12,12.00
2014,03,26,15,13,12.00
2014,03,26,15,14,12.00
2014,03,26,15,15,12.00
2014,03,26,15,16,12.00
2014,03,26,15,17,11.90
2014,03,26,15,18,11.80
2014,03,26,15,19,11.70
2014,03,26,15,20,11.70
2014,03,26,15,21,11.60
2014,03,26,15,22,11.60
2014,03,26,15,23,11.60
2014,03,26,15,24,11.60
2014,03,26,15,25,11.60
2014,03,26,15,26,11.60
2014,03,26,15,27,11.70
2014,03,26,15,28,11.70
2014,03,26,15,29,11.70
2014,03,26,15,30,11.70
2014,03,26,15,31,11.70
2014,03,26,15,32,11.80
2014,03,26,15,33,11.70
2014,03,26,15,34,11.70
2014,03,26,15,35,11.80
2014,03,26,15,36,11.80
2014,03,26,15,37,11.70
2014,03,26,15,38,11.70
2014,03,26,15,39,11.70
2014,03,26,15,40,11.70
2014,03,26,15,41,11.70
2014,03,26,15,42,11.80
2014,03,26,15,43,11.80
2014,03,26,15,44,11.80
2014,03,26,15,45,11.90
2014,03,26,15,46,11.90
2014,03,26,15,47,11.90
2014,03,26,15,48,11.90
2014,03,26,15,49,11.90
2014,03,26,15,50,12.00
2014,03,26,15,51,12.10
2014,03,26,15,52,12.10
2014,03,26,15,53,12.20
2014,03,26,15,54,12.20
2014,03,26,15,55,12.30
2014,03,26,15,56,12.30
2014,03,26,15,57,12.30
2014,03,26,15,58,12.30
2014,03,26,15,59,12.20
2014,03,26,16,00,12.20
2014,03,26,16,01,12.20
2014,03,26,16,02,12.10
2014,03,26,16,03,12.10
2014,03,26,16,04,12.10
2014,03,26,16,05,12.10
2014,03,26,16,06,12.10
2014,03,26,16,07,12.10
2014,03,26,16,08,12.10
2014,03,26,16,09,12.10
2014,03,26,16,10,12.00
2014,03,26,16,11,12.00
2014,03,26,16,12,12.00
2014,03,26,16,13,12.00
2014,03,26,16,14,12.00
2014,03,26,16,15,12.10
2014,03,26,16,16,12.10
2014,03,26,16,17,12.10
2014,03,26,16,18,12.10
2014,03,26,16,19,12.10
2014,03,26,16,20,12.10
2014,03,26,16,21,12.10
2014,03,26,16,22,12.10
2014,03,26,16,23,12.00
2014,03,26,16,24,12.00
2014,03,26,16,25,12.00
2014,03,26,16,26,11.90
2014,03,26,16,27,11.90
2014,03,26,16,28,11.80
2014,03,26,16,29,11.80
2014,03,26,16,30,11.80
2014,03,26,16,31,11.80
2014,03,26,16,32,11.80
2014,03,26,16,33,11.80
2014,03,26,16,34,11.80
2014,03,26,16,35,11.80
2014,03,26,16,36,11.80
2014,03,26,16,37,11.90
2014,03,26,16,38,11.90
2014,03,26,16,39,11.90
2014,03,26,16,40,11.90
2014,03,26,16,41,11.90
2014,03,26,16,42,11.90
2014,03,26,16,43,11.90
2014,03,26,16,44,12.00
2014,03,26,16,45,12.00
2014,03,26,16,46,12.10
2014,03,26,16,47,12.10
2014,03,26,16,48,12.10
2014,03,26,16,49,12.10
2014,03,26,16,50,12.00
2014,03,26,16,51,12.00
2014,03,26,16,52,12.00
2014,03,26,16,53,11.90
2014,03,26,16,54,11.90
2014,03,26,16,55,11.90
2014,03,26,16,56,11.80
2014,03,26,16,57,11.80
2014,03,26,16,58,11.80
2014,03,26,16,59,11.80
2014,03,26,17,00,11.70
2014,03,26,17,01,11.70
2014,03,26,17,02,11.70
2014,03,26,17,03,11.70
2014,03,26,17,04,11.70
2014,03,26,17,05,11.70
2014,03,26,17,06,11.60
2014,03,26,17,07,11.60
2014,03,26,17,08,11.50
2014,03,26,17,09,11.50
2014,03,26,17,10,11.40
2014,03,26,17,11,11.40
2014,03,26,17,12,11.30
2014,03,26,17,13,11.30
2014,03,26,17,14,11.30
2014,03,26,17,15,11.30
2014,03,26,17,16,11.20
2014,03,26,17,17,11.20
2014,03,26,17,18,11.10
2014,03,26,17,19,11.10
2014,03,26,17,20,11.10
2014,03,26,17,21,11.10
2014,03,26,17,22,11.10
2014,03,26,17,23,11.10
2014,03,26,17,24,11.10
2014,03,26,17,25,11.00
2014,03,26,17,26,11.00
2014,03,26,17,27,11.00
2014,03,26,17,28,10.90
2014,03,26,17,29,10.90
2014,03,26,17,30,10.90
2014,03,26,17,31,10.90
2014,03,26,17,32,10.90
2014,03,26,17,33,10.90
2014,03,26,17,34,10.90
2014,03,26,17,35,11.00
2014,03,26,17,36,11.00
2014,03,26,17,37,11.00
2014,03,26,17,38,11.00
2014,03,26,17,39,11.00
2014,03,26,17,40,11.00
2014,03,26,17,41,11.00
2014,03,26,17,42,10.90
2014,03,26,17,43,10.90
2014,03,26,17,44,10.90
2014,03,26,17,45,10.90
2014,03,26,17,46,10.90
2014,03,26,17,47,10.80